IRS-1A

operational
NORAD ID: 18960 Int'l Des: 1988-021 Owner: ISRO Country: IN
LEOCIRCULARRETROGRADESSO

IRS-1Aについて

説明を読み込み中...

リアルタイム位置

3D地球を読み込み中...

次回通過

高度履歴

Altitude vs Time

uPlot chart will show altitude changes over time

軌道要素

1 18960U 88021A 26062.13698262 -.00000136 00000-0 -67332-4 0 9993
2 18960 98.8650 120.6736 0015057 139.8794 246.9449 13.97156184838367
Epoch: Mar 3, 2026 • Age: 20 hours

現在のステータス

高度 908.8 km
速度 7.40 km/s
衛星直下点 -25.31°S, 158.59°W
打ち上げ日 Mar 17, 1988
運用期間 37.9 years
タイプ other

技術仕様

分類 Payload
質量 975.00 kg
乾燥質量 950.00 kg
総質量 975.00 kg
長さ 1.60 m
直径 1.10 m
スパン 12.00 m
形状 Box + 2 Pan
製造者 ISRO
バスタイプ IRS
フェーズステータス In Orbit
所有者/国 ISRO/IN

大規模コンステレーション

Loading constellations...